Regional Weather Roundup
Issued by NWS

Home | Current Version | Previous Version | Text Only | Print | Product List | Glossary Off
Versions: 1 2 3 4 5 6 7 8 9 10 11 12 13 14 15 16 17 18 19 20 21 22 23 24 25 26 27 28 29 30 31 32 33 34 35 36 37 38 39 40 41 42 43 44 45 46 47 48 49 50

000
ASUS43 KLOT 220403
RWRIL

ILLINOIS REGIONAL WEATHER ROUNDUP
NATIONAL WEATHER SERVICE CHICAGO/ROMEOVILLE IL
1100 PM CDT MON MAY 21 2018

NOTE: "FAIR" INDICATES FEW OR NO CLOUDS BELOW 12,000 FEET WITH NO
SIGNIFICANT WEATHER AND/OR OBSTRUCTIONS TO VISIBILITY.

* THESE STATIONS ARE NOT UNDER NWS QUALITY CONTROL. THEY ALSO MAY NOT
  REPORT WEATHER SUCH AS PRECIPITATION OR FOG.

ILZ001-002-007-009-015-016-024-220500-
NORTHWEST ILLINOIS

CITY           SKY/WX    TMP DP  RH WIND       PRES   REMARKS
MOLINE         FAIR      64  62  93 NW5       29.99R FOG
SAVANNA*       CLOUDY    62  62  99 CALM      29.99S FOG
$$

ILZ003-004-008-010-011-017-018-220500-
NORTH CENTRAL ILLINOIS

CITY           SKY/WX    TMP DP  RH WIND       PRES   REMARKS
ROCKFORD       CLOUDY    58  57  97 E3        30.00F FOG
FREEPORT*      FOG       59  59 100 E5        30.01S VSB 1/2
ROCHELLE*      FOG       60  60 100 NE3       29.99F VSB 1/4
DE KALB*       FOG       60  60 100 NE5       30.00S VSB 1/4
PERU*          CLOUDY    69  68  94 CALM      29.99R FOG
$$

ILZ005-006-012>014-019>023-220500-
NORTHEAST ILLINOIS

CITY           SKY/WX    TMP DP  RH WIND       PRES   REMARKS
CHICAGO-OHARE  FAIR      55  53  93 N3        29.99S FOG
CHICAGO-MIDWAY CLOUDY    58  58 100 NE3       29.99S FOG
AURORA         FOG       62  62 100 NE6       29.99R VSB 1/4
LANSING*       FAIR      58  58 100 CALM      29.99S FOG
JOLIET*        FOG       64  64 100 E3        29.99R VSB 3/4
WAUKEGAN       FOG       50  50 100 N5        30.00F VSB 1/4
DUPAGE AIRPORT FOG       59  59 100 N3        29.99R VSB 1
KANKAKEE*      FAIR      64  64  97 CALM      30.00R FOG
WHEELING       CLOUDY    54  52  93 N7        30.01F FOG
MORRIS*        MOCLDY    64  64  97 CALM      29.97S FOG
NORTHERLY ISL    N/A     52  50  93 E2          N/A
$$

LMZ740>746-220500-
SOUTHERN LAKE MICHIGAN

STATION/POSITION SKY/WX   TEMP    WIND        PRES    VSBY  WAVE
                          AIR SEA DIR/SP/G                  HT/PER
                          (F)     (DEG/KT/KT) (MB)    (MI)  (FT/S)
WILMETTE HARBOR            47 47  330/  8/ 10   N/A           1/ 3
HARRISON CRIB              51     350/  8/  8   N/A
BURNHAM HARBOR             51      30/  4/  6   N/A
CALUMET HARBOR             51     330/  5/  7 1015.2S
BURNS HARBOR               56      CALM  /  4 1015.9S
MICHIGAN CITY 6N           60 54  150/  4/  6   N/A           1
ST. JOSEPH                 58 52  150/  8/ 12 1015.6F         1
$$

ILZ025>027-034>036-040-047-049-050-058-095>099-220500-
WEST-CENTRAL ILLINOIS

CITY           SKY/WX    TMP DP  RH WIND       PRES   REMARKS
QUINCY         PTCLDY    67  62  84 CALM      30.00R
GALESBURG*     CLOUDY    64  61  88 CALM      30.01R
MACOMB*        CLOUDY    66  64  90 NW5       30.02R
JACKSONVILLE*  CLEAR     68  65  90 CALM      30.00R
PITTSFIELD*    CLEAR     70  66  88 W3        30.01S
$$

ILZ028>032-037-038-041>044-048-051>054-059>061-220500-
CENTRAL ILLINOIS

CITY           SKY/WX    TMP DP  RH WIND       PRES   REMARKS
PONTIAC        FAIR      67  66  98 SE6       29.99S
BLOOMINGTON    FAIR      68  65  90 SW7       30.01R
DECATUR        FAIR      68  66  93 S7        30.00S
PEORIA         CLOUDY    70  65  84 CALM      29.99R
LACON*         MOCLDY    67  66  94 CALM      29.98R
LINCOLN*       FAIR      72  68  89 SW3       29.99S
SPRINGFIELD    FAIR      69  67  93 S6        30.00R
TAYLORVILLE    FAIR      69  68  96 CALM      30.01R
$$

ILZ033-039-045-046-055>057-062-063-220500-
EAST-CENTRAL ILLINOIS

CITY           SKY/WX    TMP DP  RH WIND       PRES   REMARKS
CHAMPAIGN      FAIR      67  65  93 S7        30.00S
DANVILLE*      FAIR      68  66  96 S7        29.98S
RANTOUL*       FAIR      70  67  89 SW3       30.00R
MATTOON        FAIR      69  68  96 S3        30.00S
PARIS*         FAIR      68  67  94 SW6       30.02S
$$

ILZ079-100>102-220500-
SOUTHWEST ILLINOIS

CITY           SKY/WX    TMP DP  RH WIND       PRES   REMARKS
BELLEVILLE     CLEAR     69  68  97 S5        29.99S
CAHOKIA*       CLEAR     70  68  93 CALM      30.00R
SPARTA*        CLEAR     72  71  96 S6        30.03R
$$

ILZ064>066-069>071-074>076-080>082-084>086-088>090-092>094-220500-
SOUTH-CENTRAL ILLINOIS

CITY           SKY/WX    TMP DP  RH WIND       PRES   REMARKS
CARBONDALE     FAIR      69  67  93 CALM      30.02R
CAIRO*         FAIR      73  71  95 CALM      30.03S
EFFINGHAM*     FAIR      67  67 100 CALM      30.03S FOG
CENTRALIA*     CLEAR     70  69  96 S5        30.01S
SALEM*         FAIR      70  67  88 CALM      30.01S
$$

ILZ067-068-072-073-078-083-087-091-220500-
SOUTHEAST ILLINOIS

CITY           SKY/WX    TMP DP  RH WIND       PRES   REMARKS
LAWRENCEVILLE  FAIR      71  68  90 S6        30.02S
FLORA*         FAIR      70  67  89 CALM      30.02S
FAIRFIELD*     FAIR      69  68  98 CALM      30.01S
HARRISBURG*    FAIR      71  70  98 CALM      30.03S
ROBINSON*      FAIR      68  68  99 S5        30.03R
CARMI*         FAIR      71  70  96 S5        30.02S
$$

ABBREVIATIONS USED IN REMARKS
   TC - TEMPERATURE IN CELSIUS
  WCI - WIND CHILL INDEX
   HX - HEAT INDEX
  VSB - VISIBILITY
$$




USA.gov is the U.S. government's official web portal to all federal, state and local government web resources and services.